sat.trackr.live / text

‹ back to catalog

STARLINK-37155

NORAD 68314 · 2026-057W

PAYLOAD ACTIVE UNKNOWN

§ Identity

Operator
Country
US
Launch date
2026-03-20
Launch site
AFWTR
Launch vehicle
Mass (kg)
RCS (m²)

Purposes: comms

External: N2YO · Heavens-Above · Gunter

§ Orbital elements

Epoch: 2026-05-24T21:00:14.289696Z

Period
91.42 min
Inclination
97.2846°
Eccentricity
0.0005564
Mean motion
15.75213315 rev/d
Perigee alt
340.3 km
Apogee alt
347.8 km
Semi-major
6,722.2 km
B*
1.5783e-3
RAAN
271.1870°
Arg perigee
73.6304°
Mean anomaly
286.5573°
Rev number
1,028

§ Raw data

STARLINK-371551 68314U 26057W   26144.87516539  .00242471  00000+0  15783-2 0  99982 68314  97.2846 271.1870 0005564  73.6304 286.5573 15.75213315 10289

JSON: /api/v1/satellites/68314 · /tle

For live sub-satellite position, see the globe view (requires WebGL).

§ Visibility from observer

Set your observer location to see the next 7 days of passes ≥ 10°. The values pass through the URL so the page stays shareable.

No JS? Fill the form by hand. The geolocation button needs JavaScript.